User: anonymous   Login
Location: NJAA Observatory
(40.6819°N, 74.8979°W)
Time: 18:27:33
(UTC-04:00)
Language:

Cosmos 1461 - Orbit

View from above orbital plane
View from above orbital plane
View from above satellite
View from above satellite

Ground track
Ground track

The orbit data is extracted from the following two-line orbital elements,

1 14064U 83044A   16270.55007299  .00001283  00000-0  12697-3 0  9999
2 14064  65.0030  20.2296 0095910 159.5721 200.9273 14.93229686683983
Epoch (UTC): 26 September 2016 13:12:06
Eccentricity: 0.0095910
inclination: 65.0030°
perigee height: 521 km
apogee height: 654 km
right ascension of ascending node: 20.2296°
argument of perigee: 159.5721°
revolutions per day: 14.93229686
mean anomaly at epoch: 200.9273°
orbit number at epoch: 68398

The dashed part of the orbit path shows where the satellite is in the earth's shadow,  

DLR